Regional Weather Roundup
Issued by NWS Jackson, KY

Home | Current Version | Previous Version | Text Only | Print | Product List | Glossary Off
Versions: 1 2 3 4 5 6 7 8 9 10 11 12 13 14 15 16 17 18 19 20 21 22 23 24 25 26 27 28 29 30 31 32 33 34 35 36 37 38 39 40 41 42 43 44 45 46 47 48 49 50

000
ASUS43 KJKL 011910
RWRJKL

EAST KENTUCKY HOURLY WEATHER ROUNDUP
NATIONAL WEATHER SERVICE JACKSON KY
300 PM EDT WED JUL 01 2015

NOTE: "FAIR" INDICATES FEW OR NO CLOUDS BELOW 12,000 FEET WITH
NO SIGNIFICANT WEATHER AND/OR OBSTRUCTIONS TO VISIBILITY.

* THESE REPORTS ARE NOT UNDER NWS QUALITY CONTROL AND MAY NOT
  REPORT WEATHER SUCH AS PRECIPITATION AND FOG.

KYZ079-080-083-085-087-088-110-112-115-119-120-012000
...EASTERN KENTUCKY...

CITY           SKY/WX    TMP DP  RH WIND       PRES   REMARKS
JACKSON        LGT RAIN  72  63  73 NW5       29.97S
LONDON         TSTM      74  67  78 W9G21     29.99S
SOMERSET*      CLOUDY    70  70 100 NW3       29.99F
MONTICELLO*    CLOUDY    75  71  87 S5        30.01F
MIDDLESBORO*   RAIN      75  71  87 S5        29.98F
HARLAN APT*      N/A     75  66  73 CALM      30.00F
HAZARD APT*    PTCLDY    77  66  69 SW9       29.97F
BLACK MTN*       N/A     68  63  83 S2          N/A
PIKEVILLE APT* MOSUNNY   79  66  65 CALM      29.96F
BIG SANDY*     MOCLDY    78  67  69 CALM      29.96S
MOREHEAD APT*  PTCLDY    79  66  65 VRB5      29.97F
$$

KYZ035-036-041-042-044-050-067-078-099-012000
...CENTRAL KENTUCKY...

CITY           SKY/WX    TMP DP  RH WIND       PRES   REMARKS
MT STERLING*   MOSUNNY   79  68  69 N3        29.96F
FLEMING/MASON* SUNNY     77  63  61 W5        29.96F
DANVILLE*      LGT RAIN  64  64 100 S6        29.99F
RICHMOND*      CLOUDY    73  68  83 SW12G17   29.96S
LEXINGTON      PTSUNNY   77  68  73 NW3       29.95F
FRANKFORT      PTSUNNY   79  67  66 NW5       29.93F
$$

KYZ091>093-OHZ055-061-077-WVZ005-015-034-035-042-012000
...SOUTHERN OHIO/WEST VIRGINIA...

CITY           SKY/WX    TMP DP  RH WIND       PRES   REMARKS
COVINGTON      MOSUNNY   78  60  53 W6        29.93F
COLUMBUS       PTSUNNY   75  58  55 NW10      29.92F
DAYTON         MOSUNNY   76  60  57 NW7       29.94F
WILMINGTON     PTSUNNY   77  57  50 MISG      29.93F
HUNTINGTON     CLOUDY    77  64  64 CALM      29.93F
CHARLESTON     MOSUNNY   77  65  66 VRB6      29.95F
PINEVILLE*     MOSUNNY   80  66  62 MISG      30.02F
BECKLEY        MOSUNNY   77  59  53 W12       30.01F
BLUEFIELD      MOSUNNY   78  60  53 W12       30.04F
$$

VAZ002-007-008-TNZ017-027-036-066-071-012000
...SOUTHWEST VIRGINIA/EAST TENNESSEE...

CITY           SKY/WX    TMP DP  RH WIND       PRES   REMARKS
WISE*          PTSUNNY   73  63  68 SW9       30.05F
JONESVILLE*      N/A    N/A N/A N/A MISG        N/A
ABINGDON*      PTSUNNY   76  66  71 W7        30.02F
BRISTOL        CLOUDY    79  66  64 W10       30.00F
KNOXVILLE      CLOUDY    78  68  71 SW9       29.99F
OAK RIDGE      CLOUDY    78  72  81 VRB5      30.01F
CROSSVILLE     CLOUDY    77  65  66 NW8       30.05F
NASHVILLE      TSTM      70  70 100 S5        30.01F FOG
$$

...KEY TO REMARKS...
VSB - VISIBILITY IN MILES
WCI - WIND CHILL INDEX
HX  - HEAT INDEX

$$


USA.gov is the U.S. government's official web portal to all federal, state and local government web resources and services.